Other Public Products
Issued by NWS Charleston, SC

Current Version | Previous Version | Graphics & Text | Print | Product List | Glossary On
Versions: 1 2 3 4 5 6 7 8 9 10 11 12 13 14 15 16 17 18 19 20 21 22 23 24 25 26 27 28 29 30 31 32 33 34 35 36 37 38 39 40 41 42 43 44 45 46 47 48 49 50
239 FPUS82 KCHS 251827 OPUCHS TEST...KCHS/KSAV Gateway Observations...TEST National Weather Service Charleston SC 200 PM EDT TUE JUL 25 2017 NOTE: "fair" indicates few or no clouds below 12,000 feet with no significant weather and/or obstructions to visibility. SCZ050-WAZ558-NCZ071-TXZ119-213-PAZ071-DCZ001-FLZ074-172-MI076- NYZ176-178-MAZ016-IL014-TNZ027-NJZ106-GAZ044-MD014-251900- ...Gateway Observations for Charleston International... CITY SKY/WX TMP DP RH WIND PRES REMARKS Chas Airport MOSUNNY 92 74 55 VRB3 30.05S HX 101 6HR MIN TEMP: 78; 6HR MAX TEMP: 92; Seattle MOSUNNY 74 53 48 VRB6 30.05S 6HR MIN TEMP: 58; 6HR MAX TEMP: 74; Charlotte PTSUNNY 91 67 44 NW6 30.09S HX 94 6HR MIN TEMP: 76; 6HR MAX TEMP: 93; Dallas DFW MOSUNNY 92 75 57 S9 30.05F HX 103 6HR MIN TEMP: 78; 6HR MAX TEMP: 92; Dallas Love MOSUNNY 91 73 55 SW7 30.06F HX 99 6HR MIN TEMP: 79; 6HR MAX TEMP: 92; Philladelphia PTSUNNY 77 62 59 NE8 30.09S 6HR MIN TEMP: 68; 6HR MAX TEMP: 78; Wash National PTSUNNY 81 62 52 N8 30.11F 6HR MIN TEMP: 72; 6HR MAX TEMP: 81; Baltimore PTSUNNY 79 63 57 NW9 30.10S 6HR MIN TEMP: 70; 6HR MAX TEMP: 79; Miami CLOUDY 91 74 57 N5 30.12S THUNDER HX 100 6HR MIN TEMP: 86; 6HR MAX TEMP: 94; Detroit PTSUNNY 78 55 44 NE8 30.22F 6HR MIN TEMP: 62; 6HR MAX TEMP: 80; Newark CLOUDY 69 60 73 VRB3 30.11R 6HR MIN TEMP: 63; 6HR MAX TEMP: 70; 6HR PCP: 0.01; Laguardia CLOUDY 68 61 78 NE10 30.11S 6HR MIN TEMP: 64; 6HR MAX TEMP: 68; J F K CLOUDY 72 62 71 N6 30.11S 6HR MIN TEMP: 65; 6HR MAX TEMP: 72; Boston Logan CLOUDY 63 55 75 NE10 30.13S 6HR MIN TEMP: 57; 6HR MAX TEMP: 63; 6HR PCP: 0.01; Ft. Lauderdale NOT AVBL Chicago O`Hare MOSUNNY 79 55 43 S10 30.20S 6HR MIN TEMP: 66; 6HR MAX TEMP: 79; Chicago Midway MOSUNNY 80 55 42 SE12 30.19F 6HR MIN TEMP: 67; 6HR MAX TEMP: 80; Houston Bush PTSUNNY 92 72 51 S9 30.10F HX 99 6HR MIN TEMP: 77; 6HR MAX TEMP: 92; Houston Hobby PTSUNNY 92 75 57 S10 30.10S HX 103 6HR MIN TEMP: 80; 6HR MAX TEMP: 93; Nashville PTSUNNY 93 68 43 E7 30.10S HX 97 6HR MIN TEMP: 79; 6HR MAX TEMP: 95; Atlanta CLOUDY 86 76 71 SW8 30.10F HX 96 6HR MIN TEMP: 75; 6HR MAX TEMP: 87; $$ GAZ044-118-TXZ119-213-NCZ071-DCZ001-MDZ014-506-PAZ021-071-NJZ106- NYZ176-178-MAZ106-OHZ011-021-055-MIZ076-KYZ091-ILZ014-INZ047- MNZ060-ONZ431-251900- ...Gateway Observations for Savannah International... CITY SKY/WX TMP DP RH WIND PRES REMARKS Savannah Arpt PTSUNNY 92 73 53 VRB3 30.08S HX 100 6HR MIN TEMP: 77; 6HR MAX TEMP: 92; 6HR PCP: TRACE; Atlanta CLOUDY 86 76 71 SW8 30.10F HX 96 6HR MIN TEMP: 75; 6HR MAX TEMP: 87; Charlotte PTSUNNY 91 67 44 NW6 30.09S HX 94 6HR MIN TEMP: 76; 6HR MAX TEMP: 93; Dallas DFW MOSUNNY 92 75 57 S9 30.05F HX 103 6HR MIN TEMP: 78; 6HR MAX TEMP: 92; Houston Bush PTSUNNY 92 72 51 S9 30.10F HX 99 6HR MIN TEMP: 77; 6HR MAX TEMP: 92; Wash National PTSUNNY 81 62 52 N8 30.11F 6HR MIN TEMP: 72; 6HR MAX TEMP: 81; Wash Dulles PTSUNNY 76 60 57 NW10 30.13S 6HR MIN TEMP: 70; 6HR MAX TEMP: 77; Baltimore PTSUNNY 79 63 57 NW9 30.10S 6HR MIN TEMP: 70; 6HR MAX TEMP: 79; Philadelphia PTSUNNY 77 62 59 NE8 30.09S 6HR MIN TEMP: 68; 6HR MAX TEMP: 78; Newark CLOUDY 69 60 73 VRB3 30.11R 6HR MIN TEMP: 63; 6HR MAX TEMP: 70; 6HR PCP: 0.01; Laguardia CLOUDY 68 61 78 NE10 30.11S 6HR MIN TEMP: 64; 6HR MAX TEMP: 68; J F K CLOUDY 72 62 71 N6 30.11S 6HR MIN TEMP: 65; 6HR MAX TEMP: 72; Boston CLOUDY 63 55 75 NE10 30.13S 6HR MIN TEMP: 57; 6HR MAX TEMP: 63; 6HR PCP: 0.01; Pittsburg CLOUDY 70 58 65 N8 30.20S 6HR MIN TEMP: 63; 6HR MAX TEMP: 70; 6HR PCP: TRACE; Akron PTSUNNY 72 57 59 N8 30.21F 6HR MIN TEMP: 64; 6HR MAX TEMP: 74; Cleveland PTSUNNY 74 60 61 N10 30.24S 6HR MIN TEMP: 68; 6HR MAX TEMP: 76; Cincinnati MOSUNNY 79 59 50 N6 30.19S 6HR MIN TEMP: 65; 6HR MAX TEMP: 79; Columbus PTSUNNY 72 58 62 NE8 30.21S Detroit PTSUNNY 78 55 44 NE8 30.22F 6HR MIN TEMP: 62; 6HR MAX TEMP: 80; Chicago O`Hare MOSUNNY 79 55 43 S10 30.20S 6HR MIN TEMP: 66; 6HR MAX TEMP: 79; Minneapolis CLOUDY 78 64 61 S21G28 29.98F 6HR MIN TEMP: 68; 6HR MAX TEMP: 79; 6HR PCP: TRACE; Indianapolis MOSUNNY 78 56 46 E12 30.17F 6HR MIN TEMP: 65; 6HR MAX TEMP: 78; Toronto Canada PTSUNNY 72 57 60 SE7 30.19F $$

USA.gov is the U.S. government's official web portal to all federal, state and local government web resources and services.